This is the latest recevied weather packets stored in our database for station/object SR9WXY. If no packets are shown the sender has not sent any weather packets the latest 10 day(s).
| Time | Temp. | Humidity | Pressure | Rain* | Wind** | Luminosity | Snow |
|---|---|---|---|---|---|---|---|
| 1777986512 | 17.22° C | 45% | 877.6 hPa | - | - | - | - |
| 1777986212 | 16.67° C | 46% | 877.6 hPa | - | - | - | - |
| 1777985912 | 16.11° C | 46% | 877.7 hPa | - | - | - | - |
| 1777985612 | 16.11° C | 46% | 877.6 hPa | - | - | - | - |
| 1777985312 | 16.11° C | 46% | 877.6 hPa | - | - | - | - |
| 1777985012 | 16.11° C | 46% | 877.8 hPa | - | - | - | - |
| 1777984710 | 16.67° C | 46% | 877.8 hPa | - | - | - | - |
| 1777984410 | 16.67° C | 46% | 878 hPa | - | - | - | - |
| 1777984110 | 16.67° C | 46% | 877.9 hPa | - | - | - | - |
| 1777983810 | 16.11° C | 46% | 878 hPa | - | - | - | - |
| 1777983510 | 16.11° C | 46% | 878.1 hPa | - | - | - | - |
| 1777982907 | 16.11° C | 45% | 878.1 hPa | - | - | - | - |
| 1777982608 | 16.11° C | 45% | 878 hPa | - | - | - | - |
| 1777982307 | 16.11° C | 45% | 878.1 hPa | - | - | - | - |
| 1777982007 | 16.67° C | 45% | 878.1 hPa | - | - | - | - |
| 1777981707 | 16.67° C | 45% | 878.1 hPa | - | - | - | - |
| 1777981107 | 16.67° C | 45% | 878.2 hPa | - | - | - | - |
| 1777980807 | 17.22° C | 45% | 878.1 hPa | - | - | - | - |
| 1777980507 | 17.78° C | 45% | 878.1 hPa | - | - | - | - |
| 1777980207 | 18.89° C | 45% | 878.1 hPa | - | - | - | - |
| 1777979907 | 18.89° C | 45% | 878.1 hPa | - | - | - | - |
| 1777979307 | 18.33° C | 45% | 878.1 hPa | - | - | - | - |
| 1777978698 | 18.89° C | 45% | 878.2 hPa | - | - | - | - |
| 1777978398 | 18.89° C | 45% | 878.2 hPa | - | - | - | - |
| 1777978096 | 18.33° C | 46% | 878.3 hPa | - | - | - | - |
* Rain since midnight (hover to see other rain measurements)
** Current wind speed in m/s (hover to see current wind gust speed)